{"data":{"norad_id":66015,"intl_designator":"2025-232L","name":"STARLINK-34622","alt_names":[],"object_type":"PAYLOAD","status":"ACTIVE","operator":null,"country":"US","launch_date":"2025-10-16","launch_site_code":"AFETR","launch_vehicle":null,"mission":null,"orbit_class":"UNKNOWN","rcs_meters":null,"size_class":null,"mass_kg":null,"dimensions":null,"purposes":["comms"],"wikipedia_slug":null,"has_3d_model":false,"image_url":null,"decayed_at":null,"tle_current":{"epoch":"2026-05-25T04:00:03.998880Z","epoch_age_seconds":67560,"freshness":"FRESH","line1":"1 66015U 25232L   26145.16671295  .00348749  00000+0  10100-1 0  9994","line2":"2 66015  53.1597 108.8232 0001903  96.2587 222.7626 15.33644183  5701","mean_motion":15.33644183,"eccentricity":0.0001903,"inclination_deg":53.1597,"raan_deg":108.8232,"arg_perigee_deg":96.2587,"mean_anomaly_deg":222.7626,"bstar":0.0101,"rev_number":570,"period_min":93.894008529617,"perigee_km":463.64837057601,"apogee_km":466.25284972043,"semimajor_km":6843.0876101482,"source":"CELESTRAK","updated_at":"2026-05-25T13:38:21.015401Z"}}}